Find Starlink 1551

NORAD ID: 46075 Int'l Des: 2020-055 Owner: SPXS Country: US Constellation: starlink operational
LEOCIRCULARSTARLINK_TYPE

Live Position

Loading 3D Globe...

About Starlink 1551

Description loading...

Upcoming Passes

Passes for default location (London). Set your location on the main map for personalized predictions.

Altitude History

Loading altitude history...

Two-Line Element Set

1 46075U 20055BA 26106.22305710 .00000491 00000-0 29351-4 0 9997
2 46075 53.1591 286.6505 0001331 102.1739 257.9411 15.29348174314989
Epoch: Apr 16, 2026 • Age: 31 hours

Current Status

Altitude 484.0 km
Velocity 7.62 km/s
Sub-Earth Point -21.49°S, 91.32°E
Launch Date Aug 7, 2020
Age 5.6 years
Type internet

Technical Details

Classification Payload
Mass 260.00 kg
Dry Mass 248.00 kg
Total Mass 260.00 kg
Length 0.20 m
Diameter 2.80 m
Span 9.00 m
Shape Box + pan
Manufacturer SPXS
Bus Type Starlink
Phase Status In Orbit
Owner/State SPXS/US

Most Searched